Flight Track Log - Related Links

Times and Time Zones

All times are in EDT time to prevent confusion due to time zone crossing. See the DAL3741 flight status page for this flight to view local times or setup timezone preferences in your user account.

Time Position Orientation Groundspeed Altitude Reporting Facility
EDT Latitude Longitude Course Direction KTS MPH feet Rate Location/Type
Fri 04:11:10 PM 44.9044 -93.2372 66° East 138 159 2,500  Level FAA TRACON SMA TRACON (SMA)
Fri 04:11:30 PM 44.9181 -93.2375 359° North 153 176 2,900 1,950 Climbing FAA TRACON SMA TRACON (SMA)
Fri 04:11:50 PM 44.9336 -93.2372 North 174 200 3,800 3,000 Climbing FAA TRACON SMA TRACON (SMA)
Fri 04:12:10 PM 44.9531 -93.2347 North 185 213 4,900 2,400 Climbing FAA TRACON SMA TRACON (SMA)
Fri 04:12:30 PM 44.9669 -93.2167 43° Northeast 215 247 5,400 1,538 Climbing FAA TRACON SMA TRACON (SMA)
Fri 04:12:49 PM 44.9769 -93.1894 63° Northeast 245 282 5,900 2,308 Climbing FAA TRACON SMA TRACON (SMA)
Fri 04:13:00 PM 44.9706 -92.8563 69° East  Level FlightAware Approximate
Fri 04:13:09 PM 44.9872 -93.1611 63° Northeast 262 302 6,900  Level FAA TRACON SMA TRACON (SMA)
Fri 04:13:29 PM 44.9997 -93.1258 63° Northeast 264 304 8,100 3,150 Climbing FAA TRACON SMA TRACON (SMA)
Fri 04:13:49 PM 45.0103 -93.0975 62° Northeast 262 302 9,000 2,400 Climbing FAA TRACON SMA TRACON (SMA)
Fri 04:14:00 PM 45.0031 -92.7343 69° East  Level FlightAware Approximate
Fri 04:14:09 PM 45.0208 -93.0692 62° Northeast 265 305 9,700  Level FAA TRACON SMA TRACON (SMA)
Fri 04:14:29 PM 45.0339 -93.0331 63° Northeast 267 307 10,700 1,902 Climbing FAA TRACON SMA TRACON (SMA)
Fri 04:14:50 PM 45.0444 -93.0031 64° Northeast 274 315 11,000 1,082 Climbing FAA TRACON SMA TRACON (SMA)
Fri 04:15:00 PM 45.0381 -92.6137 66° East  Level FlightAware Approximate
Fri 04:15:30 PM 45.0722 -92.9306 61° Northeast 308 354 11,800  Level FAA TRACON SMA TRACON (SMA)
Fri 04:15:50 PM 45.0847 -92.8964 63° Northeast 315 362 12,400 1,650 Climbing FAA TRACON SMA TRACON (SMA)
Fri 04:16:00 PM 45.0749 -92.4941 66° East  Level FlightAware Approximate
Fri 04:16:10 PM 45.0975 -92.8625 62° Northeast 317 365 12,900  Level FAA TRACON SMA TRACON (SMA)
Fri 04:16:30 PM 45.1128 -92.8194 63° Northeast 319 367 13,600 1,950 Climbing FAA TRACON SMA TRACON (SMA)
Fri 04:16:50 PM 45.1261 -92.7856 61° Northeast 319 367 14,200 1,650 Climbing FAA TRACON SMA TRACON (SMA)
Fri 04:17:10 PM 45.1386 -92.7508 63° Northeast 322 371 14,700 1,350 Climbing FAA TRACON SMA TRACON (SMA)
Fri 04:17:30 PM 45.1550 -92.7072 62° Northeast 325 374 15,100 600 Climbing FAA TRACON SMA TRACON (SMA)
Fri 04:17:50 PM 45.1683 -92.6703 63° Northeast 336 387 15,100  Level FAA TRACON SMA TRACON (SMA)
Fri 04:18:10 PM 45.1803 -92.6308 67° East 350 403 15,100  Level FAA TRACON SMA TRACON (SMA)
Fri 04:18:30 PM 45.1792 -92.5739 92° East 374 430 15,100  Level FAA TRACON SMA TRACON (SMA)
Fri 04:18:50 PM 45.1775 -92.5283 93° East 379 436 15,100  Level FAA TRACON SMA TRACON (SMA)
Fri 04:19:10 PM 45.1767 -92.4833 91° East 378 435 15,100  Level FAA TRACON SMA TRACON (SMA)
Fri 04:19:30 PM 45.1761 -92.4267 91° East 373 429 15,100  Level FAA TRACON SMA TRACON (SMA)
Fri 04:19:50 PM 45.1750 -92.3817 92° East 373 429 15,100  Level FAA TRACON SMA TRACON (SMA)
Fri 04:20:29 PM 45.1733 -92.2911 91° East 374 430 15,100  Level FAA TRACON SMA TRACON (SMA)
Fri 04:20:49 PM 45.1714 -92.2342 93° East 375 432 15,100  Level FAA TRACON SMA TRACON (SMA)
Fri 04:21:09 PM 45.1711 -92.1894 90° East 372 428 15,100  Level FAA TRACON SMA TRACON (SMA)
Fri 04:21:30 PM 45.1700 -92.1439 92° East 371 427 15,100  Level FAA TRACON SMA TRACON (SMA)
Fri 04:21:49 PM 45.1689 -92.0878 92° East 373 429 15,100  Level FAA TRACON SMA TRACON (SMA)
Fri 04:22:10 PM 45.1686 -92.0425 90° East 373 429 15,100  Level FAA TRACON SMA TRACON (SMA)
Fri 04:22:30 PM 45.1658 -91.9972 95° East 375 432 15,100  Level FAA TRACON SMA TRACON (SMA)
Fri 04:22:50 PM 45.1647 -91.9406 92° East 374 430 15,100  Level FAA TRACON SMA TRACON (SMA)
Fri 04:23:10 PM 45.1661 -91.8964 87° East 371 427 15,100 -125 Level FAA TRACON SMA TRACON (SMA)
Fri 04:23:38 PM 45.1511 -91.8275 107° East 369 425 15,000 -67 Descending Minneapolis Center
Fri 04:24:40 PM 45.1489 -91.6817 91° East 370 426 15,000  Level Minneapolis Center
Fri 04:25:42 PM 45.1431 -91.5367 93° East 370 426 15,000  Level Minneapolis Center
Fri 04:26:43 PM 45.1375 -91.3928 93° East 369 425 15,000  Level Minneapolis Center
Fri 04:27:45 PM 45.1178 -91.2344 100° East 373 429 15,000  Level Minneapolis Center
Fri 04:28:47 PM 45.0867 -91.0842 106° East 381 438 15,000 -290 Level Minneapolis Center
Fri 04:29:49 PM 45.0547 -90.9353 107° East 380 437 14,400 -774 Descending Minneapolis Center
Fri 04:30:51 PM 45.0258 -90.7983 107° East 378 435 13,400 -634 Descending Minneapolis Center
Fri 04:31:52 PM 44.9950 -90.6536 107° East 369 425 13,100 -195 Descending Minneapolis Center
Fri 04:32:54 PM 44.9642 -90.5078 107° East 369 425 13,000 -48 Descending Minneapolis Center
Fri 04:33:56 PM 44.9469 -90.3614 99° East 366 421 13,000 -484 Level Minneapolis Center
Fri 04:34:58 PM 44.9292 -90.2119 99° East 369 425 12,000 -1,161 Descending Minneapolis Center
Fri 04:36:00 PM 44.9142 -90.0872 100° East 338 389 10,600 -1,452 Descending Minneapolis Center
Fri 04:37:02 PM 44.9006 -89.9631 99° East 310 357 9,000 -1,561 Descending Minneapolis Center
Fri 04:38:03 PM 44.8889 -89.8425 98° East 299 344 7,400 -1,561 Descending Minneapolis Center
Fri 04:39:05 PM 44.9083 -89.7350 76° East 269 310 5,800 -1,161 Descending Minneapolis Center
Fri 04:40:07 PM 44.9244 -89.6253 78° East 272 313 5,000 -387 Descending Minneapolis Center
Fri 04:41:09 PM 44.9367 -89.5317 80° East 258 297 5,000  Level Minneapolis Center
Fri 04:42:11 PM 44.9486 -89.4408 79° East 231 266 5,000  Level Minneapolis Center
Fri 04:43:13 PM 44.9583 -89.3522 81° East 232 267 5,000  Level Minneapolis Center
Fri 04:44:15 PM 44.9253 -89.2894 127° Southeast 240 276 5,000  Level Minneapolis Center
Fri 04:45:17 PM 44.8714 -89.3222 203° Southwest 217 250 5,000  Level Minneapolis Center
Fri 04:46:19 PM 44.8272 -89.3733 219° Southwest 211 243 5,000  Level Minneapolis Center
Fri 04:47:21 PM 44.8533 -89.4283 304° West 194 223 5,000  Level Minneapolis Center
Fri 04:48:22 PM 44.8883 -89.3631 53° Northeast 211 243 5,000  Level Minneapolis Center
Fri 04:49:24 PM 44.9036 -89.2736 76° East 226 260 5,000  Level Minneapolis Center
Fri 04:50:26 PM 44.8589 -89.2272 144° Southeast 244 281 5,000  Level Minneapolis Center
Fri 04:51:28 PM 44.8411 -89.2939 249° West 194 223 5,000  Level Minneapolis Center
Fri 04:52:30 PM 44.8283 -89.3689 257° West 195 224 5,000  Level Minneapolis Center
Fri 04:53:32 PM 44.8503 -89.4289 297° West 193 222 5,000  Level Minneapolis Center
Fri 04:54:34 PM 44.8875 -89.3669 50° Northeast 215 247 5,000 -48 Level Minneapolis Center
Fri 04:55:36 PM 44.9033 -89.2808 75° East 222 255 4,900 -48 Descending Minneapolis Center
Fri 04:56:38 PM 44.8689 -89.2175 127° Southeast 243 280 4,900  Level Minneapolis Center
Fri 04:57:40 PM 44.8461 -89.2775 242° Southwest 191 220 4,900 -145 Level Minneapolis Center
Fri 04:58:42 PM 44.8325 -89.3453 254° West 179 206 4,600 -571 Descending Minneapolis Center
Fri 04:59:46 PM 44.8197 -89.4192 256° West 171 197 3,700 -844 Descending Minneapolis Center

Login

Don't have an account? Register now (free) for customized features, flight alerts, and more!